Regional Weather Roundup
Issued by NWS

Home | Current Version | Previous Version | Text Only | Print | Product List | Glossary Off
Versions: 1 2 3 4 5 6 7 8 9 10 11 12 13 14 15 16 17 18 19 20 21 22 23 24 25 26 27 28 29 30 31 32 33 34 35 36 37 38 39 40 41 42 43 44 45 46 47 48 49 50

000
ASUS43 KLMK 190210
RWRKY
KENTUCKY REGIONAL WEATHER ROUNDUP
NATIONAL WEATHER SERVICE LOUISVILLE KY
900 PM EST THU DEC 18 2014

NOTE "FAIR" INDICATES FEW OR NO CLOUDS BELOW 12,000 FEET
WITH NO SIGNIFICANT WEATHER AND/OR OBSTRUCTIONS TO VISIBILITY.

KYZ001>023-026-027-061>063-070>075-190300-
WESTERN AND SOUTH CENTRAL KENTUCKY

CITY           SKY/WX    TMP DP  RH WIND       PRES   REMARKS
PADUCAH        CLOUDY    36  31  82 NE3       30.25S
HENDERSON      CLOUDY    34  25  69 N3        30.26S
OWENSBORO      CLOUDY    34  28  79 VRB5      30.27R WCI  30
HOPKINSVILLE   CLOUDY    34  29  83 N5        30.24S WCI  30
BOWLING GREEN  CLOUDY    36  26  67 CALM      30.25S
GLASGOW        CLOUDY    33  27  79 CALM      30.23S
$$

KYZ024-025-028>034-038-045-046-053-190300-
NORTH CENTRAL KENTUCKY

CITY           SKY/WX    TMP DP  RH WIND       PRES   REMARKS
LOUISVILLE/SDF CLOUDY    33  24  69 N6        30.25S WCI  28
LOUISVILLE/LOU CLOUDY    32  24  72 N3        30.26R
FORT KNOX      CLOUDY    31  25  77 N2        30.22S
$$

KYZ035>037-039>044-047>052-055>060-089>105-190300-
NORTHEAST KENTUCKY

CITY           SKY/WX    TMP DP  RH WIND       PRES   REMARKS
LEXINGTON      CLOUDY    30  24  78 N5        30.22S WCI  25
COVINGTON      CLOUDY    28  20  71 CALM      30.22S
FRANKFORT      CLOUDY    30  23  75 NW3       30.22S
$$

KYZ054-064>069-076>088-106>120-190300-
SOUTHEAST KENTUCKY

CITY           SKY/WX    TMP DP  RH WIND       PRES   REMARKS
JACKSON        CLOUDY    32  24  72 VRB3      30.18R
LONDON         CLOUDY    35  26  69 NW5       30.19R WCI  31
SOMERSET       CLOUDY    32  27  80 N5        30.23R WCI  27
MIDDLESBORO    CLOUDY    37  29  73 CALM      30.17F
MONTICELLO     MOCLDY    36  30  79 CALM      30.24R
$$




USA.gov is the U.S. government's official web portal to all federal, state and local government web resources and services.